Location: Bon Acre
(42.6442°N, 73.5758°W)
Time: 10:58:15
(UTC+00:00)

ARIANE 6 FM1 Upper Stage - Visible Passes

Search period start: 17 February 2026 00:00
Search period end: 27 February 2026 00:00
Orbit: 522 x 608 km, 62.0° (Epoch: 16 February)

Date Brightness Start Highest point End Pass type
(mag) Time Alt. Az. Time Alt. Az. Time Alt. Az.
17 Feb 2.5 00:06:27 10° NNW 00:10:23 63° NE 00:10:52 57° E visible
18 Feb 2.4 00:06:23 10° NW 00:10:21 86° SW 00:11:45 39° SSE visible
19 Feb 3.1 00:06:23 10° NW 00:10:17 56° SW 00:12:51 20° SSE visible
20 Feb 4.0 00:06:30 10° NW 00:10:09 37° WSW 00:13:50 10° S visible
21 Feb 4.8 00:06:43 10° WNW 00:09:59 25° WSW 00:13:15 10° S visible
22 Feb 5.5 00:07:14 10° WNW 00:09:47 17° WSW 00:12:20 10° SSW visible
23 Feb 5.9 00:08:27 10° W 00:09:31 11° WSW 00:10:36 10° SW visible
